Location: Newark
(34.9471°N, 136.1778°E)
Time: 14:33:33
(UTC+00:00)

ISS - Visible Passes

Search period start: 05 December 2019 00:00
Search period end: 15 December 2019 00:00
Orbit: 412 x 421 km, 51.6° (Epoch: 05 December)

Date Brightness Start Highest point End Pass type
(mag) Time Alt. Az. Time Alt. Az. Time Alt. Az.
07 Dec -1.6 08:58:15 10° N 08:59:25 14° NNE 08:59:25 14° NNE visible
08 Dec -1.4 08:10:59 10° NNE 08:11:30 10° NNE 08:12:01 10° NNE visible
08 Dec -1.3 09:45:29 10° NW 09:46:19 16° NW 09:46:19 16° NW visible
09 Dec -3.0 08:57:12 10° NNW 09:00:16 33° NE 09:00:32 32° NE visible
10 Dec -2.3 08:09:02 10° NNW 08:11:38 20° NNE 08:14:14 10° E visible
10 Dec -2.2 09:45:19 10° WNW 09:48:02 36° WSW 09:48:02 36° WSW visible
11 Dec -3.7 08:56:40 10° NW 09:00:01 77° SW 09:03:04 12° SE visible
12 Dec -3.6 08:08:12 10° NW 08:11:29 54° NE 08:14:47 10° ESE visible
12 Dec -0.4 09:46:37 10° WSW 09:47:51 12° SW 09:49:06 10° SSW visible
13 Dec -1.0 08:56:50 10° WNW 08:59:29 22° SW 09:02:08 10° S visible
14 Dec -2.2 08:07:53 10° WNW 08:11:04 42° SW 08:14:15 10° SSE visible
